Miscellaneous Local Product
Issued by NWS Hastings, NE

Home | Current Version | Previous Version | Graphics & Text | Print | Product List | Glossary On
Versions: 1 2 3 4 5 6 7 8 9 10 11 12 13 14 15 16 17 18 19 20 21 22 23 24 25 26 27 28 29 30 31 32 33 34 35 36 37 38 39 40 41 42 43 44 45 46 47 48 49 50
000
AXUS43 KGID 041502
MISGRI

GID CWA HOURLY WEATHER ROUNDUP
NATIONAL WEATHER SERVICE HASTINGS NE
1000 AM CDT SAT JUL 04 2015

NOTE: "FAIR" INDICATES FEW OR NO CLOUDS BELOW 12,000 FEET WITH NO
SIGNIFICANT WEATHER AND/OR OBSTRUCTIONS TO VISIBILITY.

...SOUTH CENTRAL NEBRASKA...

CITY           SKY/WX    TMP DP  RH WIND       PRES   REMARKS
GRAND ISLAND   PTSUNNY   74  63  68 S12       29.99F
HASTINGS       PTSUNNY   71  64  78 S13       30.00S
KEARNEY        MOSUNNY   72  63  73 S12       29.99S
ORD            PTSUNNY   72  62  71 S13       29.96F
YORK           MOSUNNY   70  63  78 S9        30.01S
AURORA         PTSUNNY   73  64  74 S8        29.99S
LEXINGTON      SUNNY     76  65  68 S12       29.98F
HOLDREGE       MOSUNNY   69  63  81 S9        29.99S
HEBRON         MOSUNNY   72  59  65 S5        30.00S

...NEBRASKA PANHANDLE...

CITY           SKY/WX    TMP DP  RH WIND       PRES   REMARKS
CHADRON        SUNNY     77  63  61 S9        29.89F
ALLIANCE       SUNNY     74  64  71 S10       29.94F
SCOTTSBLUFF    SUNNY     73  61  65 VRB6      29.94F
SIDNEY         MOSUNNY   76  61  59 S13       29.98S

...WESTERN AND NORTH CENTRAL NEBRASKA...

CITY           SKY/WX    TMP DP  RH WIND       PRES   REMARKS
VALENTINE      SUNNY     77  61  57 S16       29.92F
AINSWORTH      MOSUNNY   73  63  70 S12       29.94F
ONEILL         PTSUNNY   72  66  81 S7        29.97S
BROKEN BOW     MOSUNNY   73  64  73 S10       29.97F
IMPERIAL       PTSUNNY   75  61  61 S14       29.96F
NORTH PLATTE   SUNNY     76  61  59 S10       29.97S
MCCOOK         SUNNY     77  62  59 S9        29.96F

...EASTERN NEBRASKA...

CITY           SKY/WX    TMP DP  RH WIND       PRES   REMARKS
NORFOLK        MOSUNNY   73  65  75 S8        29.98S
SO SIOUX CITY  SUNNY     70  63  78 S5        29.98S
TEKAMAH        SUNNY     72  61  68 S3        30.00S
COLUMBUS       MOSUNNY   72  59  64 S5        30.01S
ALBION         PTSUNNY   72  62  71 S9        29.99S
OMAHA EPPLEY   SUNNY     72  59  63 S6        30.01S
OFFUTT AFB     SUNNY     68  68 100 SE5       30.00S
MILLARD        SUNNY     73  59  61 SE5       30.01S
LINCOLN        SUNNY     73  61  65 S8        30.01S
NEBRASKA CITY  SUNNY     71  57  61 SW7       30.03R
BEATRICE       SUNNY     71  63  74 E5        30.01S
FALLS CITY     SUNNY     72  61  68 SE7       30.02S

...NORTHERN KANSAS...

CITY           SKY/WX    TMP DP  RH WIND       PRES   REMARKS
GOODLAND       SUNNY     74  62  66 S17       29.99F
HILL CITY      SUNNY     79  63  57 S16       29.98F
NORTON         SUNNY     75  59  57 S13       29.98S
PHILLIPSBURG   SUNNY     77  64  65 SE8       29.99S HAZE
SMITH CENTER   SUNNY     73  63  68 SE10      30.00S
HAYS           SUNNY     77  61  57 S17       30.00S
RUSSELL        SUNNY     75  66  73 S13       29.99S
CONCORDIA      MOSUNNY   74  61  63 S12       30.01S
SALINA         SUNNY     79  64  60 S9        30.01S
TOPEKA         SUNNY     74  65  73 CALM      30.03R



USA.gov is the U.S. government's official web portal to all federal, state and local government web resources and services.